Wind_Speed
9 9 11 12 17 20 20 20 20 21 24 26 30 32 32 30 31 31 32 31 31 26
8 9 10 11 12 14 16 18 20 22 21 22 24 27 28 30 29 28 26 27 27 23
9 10 10 10 11 11 12 14 16 17 17 18 20 21 24 27 26 26 25 24 24 20
11 11 11 10 11 11 11 11 11 12 13 15 18 17 19 22 23 23 21 20 22 23
11 12 11 11 12 12 11 10 9 9 9 9 12 13 12 14 14 18 17 17 17 15
12 12 12 13 13 12 11 10 9 6 3 3 3 2 6 9 9 10 10 11 12 13
11 10 9 10 11 11 11 10 10 10 10 5 3 4 4 6 9 8 8 10 12 15
10 10 11 13 13 13 14 13 12 11 9 9 8 9 9 9 15 15 16 16 16 12
10 10 12 14 13 16 19 20 21 22 21 21 19 16 16 18 20 19 17 17 16 15
10 12 12 13 14 18 21 22 24 25 27 22 19 19 17 17 20 17 15 14 13 11
11 13 14 17 18 20 22 24 24 25 24 23 20 20 16 17 17 15 11 11 9 8
12 14 16 19 19 20 22 22 21 19 19 19 17 16 14 13 11 9 10 8 7 5
15 16 17 17 18 18 20 20 19 18 17 14 14 11 10 7 6 6 6 5 4 4
14 14 14 14 14 13 13 13 12 12 11 11 9 8 9 9 7 6 4 3 2 3
Wind_Direction
295 289 282 277 271 270 269 268 266 249 258 251 245 240 238 234 230 224 221 225 225 221
324 320 309 301 290 283 280 276 270 263 260 264 258 245 239 235 228 225 223 226 225 223
338 333 329 328 325 315 303 296 289 282 267 268 265 254 244 238 231 223 223 220 217 218
352 346 339 334 333 333 326 318 307 296 286 271 262 260 251 241 235 226 216 211 205 206
1 0 359 354 349 344 338 336 323 299 285 265 261 255 237 229 221 210 204 200 202 198
11 8 9 5 1 0 2 4 8 356 360 351 359 256 223 208 202 199 197 190 187 177
17 13 17 23 21 20 23 26 33 33 29 29 101 105 104 149 145 143 149 152 153 153
22 24 29 37 37 45 48 43 41 40 47 44 53 84 101 122 114 124 129 133 132 132
32 41 46 54 57 67 72 73 74 75 73 70 72 80 91 115 118 118 126 119 116 116
43 53 57 70 78 83 87 88 85 82 81 70 67 77 90 106 106 112 107 106 103 101
61 67 76 83 84 85 87 86 84 81 83 77 68 74 90 95 95 97 95 83 78 89
75 79 83 85 88 91 90 86 82 82 81 80 72 70 69 74 81 94 85 80 79 66
90 93 92 95 96 92 89 88 81 74 69 72 68 58 56 53 59 63 67 61 40 23
97 93 93 95 89 84 81 78 78 78 80 78 70 59 49 48 57 45 31 23 360 349
Height
761 759 759 758 757 755 755 755 755 754 755 756 757 759 761 762 763 764 765 768 772 773
760 759 758 757 755 754 753 752 751 751 750 750 752 753 755 755 756 759 761 764 768 769
760 759 758 756 754 753 752 751 750 749 749 747 746 748 749 750 752 754 755 758 761 764
760 759 757 756 755 753 751 749 748 747 747 747 745 745 745 746 748 750 751 754 755 758
760 759 757 756 754 752 750 748 746 745 744 744 744 743 742 744 745 747 750 752 754 757
761 760 758 757 755 753 751 749 748 745 744 744 744 743 744 743 744 748 751 753 757 759
762 761 760 757 756 754 752 751 749 748 749 749 745 744 748 747 745 750 755 756 759 763
765 765 763 759 756 754 753 754 752 752 753 754 754 748 749 753 748 753 760 762 762 766
767 766 763 761 761 760 758 757 757 757 759 759 757 756 755 752 755 759 765 766 766 768
770 767 766 765 765 763 763 762 762 762 758 764 763 762 759 759 759 766 769 770 771 772
772 771 771 770 769 768 767 766 766 765 768 770 771 769 768 767 768 769 775 773 774 774
775 775 775 773 773 773 772 772 772 773 774 774 775 775 776 776 777 778 776 777 777 778
777 777 777 777 777 777 776 777 778 778 779 780 780 781 781 780 780 779 779 779 779 779
781 781 781 781 781 781 781 782 782 783 784 784 785 784 784 783 782 782 781 781 780 780